Hlavní strana
METAR-TAF:

METAR-TAF

Letiště :

Nipawin, Saskatchewan, Kanada

zeměpisná šířka: 53-20N, zeměpisná délka: 104-00W, výška: 372 m

Aktuální stav počasí

Zpráva byla vytvořena před 30 minutami, v 09:00 UTC
Jihojihovýchodní vítr 6 kt
Teplota -3°C
Vlhkost vzduchu 86%
Tlak 1023 hPa
Viditelnost: 14.5 km
Oblačno až skoro zataženo ve výšce 5500 ft
Zataženo ve výšce 6900 ft

METAR: CYBU 170900Z AUTO 15006KT 9SM BKN055 OVC069 M03/M05 A3022 RMK SLP257

Čas: 03:30 (09:30 UTC)


TAF: chybějící

Stav a předpovědi počasí z více než 4 000 letišť (zprávy METAR a TAF).

Červené a žluté tečky na mapě představují dostupné meteorologické stanice.

Když kurzor umístíte na tečku, zobrazí se název stanice.

Pak kliknutím zobrazíte stav a předpověď počasí.

Chcete-li změnit mapu, kliknutím na zelené tlačítko se znaménkem +mapu přiblížíte, kliknutím na zelené tlačítko se znaménkem – mapu oddálíte a kliknutím na zelené šipky přejdete na sousední mapy.


METAR-TAF: